TimeMST,TemperatureF,Dew PointF,Humidity,Sea Level PressureIn,VisibilityMPH,Wind Direction,Wind SpeedMPH,Gust SpeedMPH,PrecipitationIn,Events,Conditions,WindDirDegrees,DateUTC
12:53 AM,30.9,23.0,72,29.61,10.0,East,4.6,-,N/A,,Clear,80,2013-02-20 07:53:00
1:53 AM,28.9,21.9,75,29.61,10.0,Calm,Calm,-,N/A,,Clear,0,2013-02-20 08:53:00
2:53 AM,28.0,24.1,85,29.59,10.0,Calm,Calm,-,N/A,,Scattered Clouds,0,2013-02-20 09:53:00
3:53 AM,30.9,21.9,69,29.56,10.0,NNE,3.5,-,N/A,,Partly Cloudy,30,2013-02-20 10:53:00
4:53 AM,30.0,24.1,79,29.57,10.0,Calm,Calm,-,N/A,,Overcast,0,2013-02-20 11:53:00
6:53 AM,30.0,21.9,72,29.58,10.0,Calm,Calm,-,N/A,,Partly Cloudy,0,2013-02-20 13:53:00
7:53 AM,28.9,21.9,75,29.59,10.0,WNW,5.8,-,N/A,,Overcast,300,2013-02-20 14:53:00
8:53 AM,36.0,21.0,55,29.57,10.0,Calm,Calm,-,N/A,,Overcast,0,2013-02-20 15:53:00
9:32 AM,33.8,24.8,70,29.64,1.5,SSW,16.1,-,0.00,Snow,Light Snow,200,2013-02-20 16:32:00
9:34 AM,33.8,26.6,75,29.64,0.8,SSW,17.3,25.3,0.00,Snow,Light Snow,200,2013-02-20 16:34:00
9:53 AM,32.0,28.0,85,29.62,0.8,South,4.6,-,0.00,Snow,Light Snow,170,2013-02-20 16:53:00
9:58 AM,32.0,28.4,87,29.63,1.5,ESE,4.6,-,0.00,Snow,Light Snow,120,2013-02-20 16:58:00
10:03 AM,32.0,28.4,87,29.63,0.8,Calm,Calm,-,0.00,Snow,Light Snow,0,2013-02-20 17:03:00
10:16 AM,32.0,28.4,87,29.63,1.5,NNW,3.5,-,0.01,Snow,Light Snow,330,2013-02-20 17:16:00
10:18 AM,32.0,28.4,87,29.63,3.0,NNW,3.5,-,0.01,Snow,Light Snow,330,2013-02-20 17:18:00
10:26 AM,32.0,28.4,87,29.63,9.0,NW,4.6,-,0.01,,Overcast,310,2013-02-20 17:26:00
10:53 AM,34.0,28.0,79,29.61,10.0,Calm,Calm,-,0.01,,Overcast,0,2013-02-20 17:53:00
11:53 AM,35.1,27.0,72,29.58,10.0,North,3.5,-,N/A,,Overcast,360,2013-02-20 18:53:00
12:53 PM,37.0,25.0,62,29.54,10.0,ENE,3.5,-,N/A,,Scattered Clouds,60,2013-02-20 19:53:00
1:53 PM,37.9,24.1,57,29.52,10.0,ENE,5.8,-,N/A,,Scattered Clouds,70,2013-02-20 20:53:00
2:19 PM,33.8,28.4,81,29.57,2.5,SW,10.4,23.0,0.00,Snow,Light Snow,220,2013-02-20 21:19:00
2:22 PM,33.8,28.4,81,29.57,1.8,WSW,9.2,-,0.00,Snow,Light Snow,240,2013-02-20 21:22:00
2:29 PM,32.0,28.4,87,29.57,0.8,SSW,10.4,-,0.00,Snow,Light Snow,210,2013-02-20 21:29:00
2:40 PM,32.0,28.4,87,29.58,0.5,SW,12.7,-,0.01,Fog-Snow,Snow,230,2013-02-20 21:40:00
2:48 PM,30.2,28.4,93,29.59,0.2,SW,20.7,24.2,0.02,Fog-Snow,Heavy Snow,220,2013-02-20 21:48:00
2:53 PM,30.0,28.0,92,29.60,0.2,SW,15.0,24.2,0.03,Fog-Snow,Heavy Snow,220,2013-02-20 21:53:00
3:34 PM,30.2,28.4,93,29.59,0.2,Calm,Calm,-,0.10,Fog-Snow,Heavy Snow,0,2013-02-20 22:34:00
3:53 PM,30.0,28.0,92,29.57,0.8,ENE,10.4,-,0.11,Snow,Light Snow,60,2013-02-20 22:53:00
3:56 PM,30.2,28.4,93,29.58,1.0,ENE,10.4,-,0.00,Snow,Light Snow,60,2013-02-20 22:56:00
4:01 PM,30.2,28.4,93,29.58,2.0,ENE,10.4,-,0.00,Snow,Light Snow,70,2013-02-20 23:01:00
4:03 PM,30.2,26.6,86,29.58,3.0,ENE,9.2,-,0.00,Snow,Light Snow,70,2013-02-20 23:03:00
4:53 PM,30.0,27.0,88,29.58,10.0,NE,8.1,-,0.00,,Overcast,50,2013-02-20 23:53:00
5:53 PM,28.0,24.1,85,29.58,10.0,NE,3.5,-,N/A,,Clear,40,2013-02-21 00:53:00
6:53 PM,21.0,18.0,88,29.62,9.0,Calm,Calm,-,N/A,,Clear,0,2013-02-21 01:53:00
6:57 PM,19.4,17.6,93,29.59,1.2,South,3.5,-,N/A,,Partly Cloudy,190,2013-02-21 01:57:00
7:00 PM,17.6,15.8,93,29.60,0.8,SSW,4.6,-,N/A,,Mist,200,2013-02-21 02:00:00
7:06 PM,17.6,15.8,93,29.60,1.2,South,8.1,-,N/A,,Partly Cloudy,180,2013-02-21 02:06:00
7:08 PM,17.6,15.8,93,29.60,2.5,South,5.8,-,N/A,,Partly Cloudy,190,2013-02-21 02:08:00
7:15 PM,19.4,17.6,93,29.60,10.0,Calm,Calm,-,N/A,,Clear,0,2013-02-21 02:15:00
7:49 PM,15.8,12.2,86,29.61,4.0,ENE,4.6,-,N/A,,Scattered Clouds,60,2013-02-21 02:49:00
7:53 PM,17.1,12.9,84,29.67,4.0,ENE,3.5,-,N/A,,Mostly Cloudy,70,2013-02-21 02:53:00
9:44 PM,19.4,14.0,80,29.63,1.5,NE,9.2,-,N/A,,Haze,50,2013-02-21 04:44:00
9:47 PM,19.4,14.0,80,29.63,2.5,NE,8.1,-,N/A,,Haze,50,2013-02-21 04:47:00
9:53 PM,18.0,12.9,81,29.68,8.0,ENE,4.6,-,N/A,,Mostly Cloudy,60,2013-02-21 04:53:00
10:08 PM,15.8,10.4,79,29.64,10.0,ENE,5.8,-,N/A,,Scattered Clouds,60,2013-02-21 05:08:00
10:53 PM,12.9,8.1,81,29.69,10.0,Calm,Calm,-,N/A,,Clear,0,2013-02-21 05:53:00
11:53 PM,10.0,5.0,80,29.70,10.0,NE,8.1,-,N/A,,Clear,50,2013-02-21 06:53:00